Tracking 19720 objects as of 26-Jun-2019
HD Live streaming from Space Station
objects crossing your sky now

FENGYUN 1C DEB

Track FENGYUN 1C DEB now!
10-day predictions


NORAD ID: 30381
Int'l Code: 1999-025ACU
Perigee: 841.4 km
Apogee: 927.7 km
Inclination: 99.0 °
Period: 102.5 minutes
Semi major axis: 7255 km
RCS: 0.0084 m2 (small)
Launch date: May 10, 1999
Source: People's Republic of China (PRC)
Launch site: Taiyaun Space Center, China (TSC)

Note: This is SATELLITE DEBRIS
aabbcc
Your satellite tracking list
Your tracking list is empty




NASA's NSSDC Master Catalog

Two Line Element Set (TLE):
1 30381U 99025ACU 19174.02891150 +.00000608 +00000-0 +40074-3 0  9990
2 30381 099.0079 209.3351 0059453 223.9129 135.7305 14.04740675589068
Source of the keplerian elements: AFSPC